TimeEST,TemperatureF,Dew PointF,Humidity,Sea Level PressureIn,VisibilityMPH,Wind Direction,Wind SpeedMPH,Gust SpeedMPH,PrecipitationIn,Events,Conditions,WindDirDegrees,DateUTC
12:56 AM,17.1,12.9,84,30.09,10.0,North,6.9,-,N/A,,Overcast,350,2013-03-05 05:56:00
2:56 AM,17.1,14.0,88,30.09,10.0,NW,3.5,-,N/A,,Overcast,310,2013-03-05 07:56:00
4:56 AM,18.0,15.1,88,30.07,10.0,North,3.5,-,N/A,,Overcast,350,2013-03-05 09:56:00
5:56 AM,18.0,15.1,88,30.07,10.0,NNE,5.8,-,N/A,,Overcast,30,2013-03-05 10:56:00
7:56 AM,18.0,15.1,88,30.08,10.0,ENE,5.8,-,N/A,,Overcast,70,2013-03-05 12:56:00
8:56 AM,19.0,15.1,85,30.07,10.0,Variable,5.8,-,N/A,,Overcast,0,2013-03-05 13:56:00
9:56 AM,21.0,16.0,81,30.06,10.0,ENE,6.9,-,N/A,,Overcast,60,2013-03-05 14:56:00
10:20 AM,21.2,15.8,80,29.97,10.0,ENE,6.9,-,N/A,,Overcast,60,2013-03-05 15:20:00
10:47 AM,24.8,17.6,74,29.96,10.0,NE,4.6,-,N/A,,Scattered Clouds,50,2013-03-05 15:47:00
10:56 AM,24.1,17.1,75,30.05,10.0,NE,5.8,-,N/A,,Partly Cloudy,50,2013-03-05 15:56:00
11:56 AM,28.0,18.0,66,30.04,10.0,NE,5.8,-,N/A,,Clear,50,2013-03-05 16:56:00
12:56 PM,30.9,19.0,61,30.01,10.0,NE,5.8,-,N/A,,Clear,50,2013-03-05 17:56:00
1:56 PM,33.1,19.0,56,29.97,10.0,SE,4.6,-,N/A,,Clear,130,2013-03-05 18:56:00
2:56 PM,36.0,19.9,52,29.93,10.0,ENE,5.8,-,N/A,,Clear,70,2013-03-05 19:56:00
3:56 PM,37.0,19.9,50,29.90,10.0,ENE,9.2,-,N/A,,Clear,70,2013-03-05 20:56:00
4:56 PM,37.0,21.0,52,29.89,10.0,ESE,6.9,-,N/A,,Clear,110,2013-03-05 21:56:00
5:56 PM,35.1,21.0,57,29.89,10.0,ESE,8.1,-,N/A,,Clear,120,2013-03-05 22:56:00
6:56 PM,32.0,21.0,64,29.87,10.0,ESE,9.2,-,N/A,,Clear,110,2013-03-05 23:56:00
7:56 PM,30.9,21.0,67,29.87,10.0,East,10.4,-,N/A,,Clear,100,2013-03-06 00:56:00
8:56 PM,30.0,21.0,69,29.85,10.0,East,11.5,-,N/A,,Clear,100,2013-03-06 01:56:00
9:56 PM,30.9,21.0,67,29.83,10.0,East,12.7,23.0,N/A,,Clear,100,2013-03-06 02:56:00
10:56 PM,30.9,21.0,67,29.80,10.0,East,13.8,25.3,N/A,,Clear,100,2013-03-06 03:56:00
11:56 PM,30.9,21.0,67,29.78,10.0,East,17.3,24.2,N/A,,Clear,100,2013-03-06 04:56:00